This is the latest recevied weather packets stored in our database for station/object W8RSN-13. If no packets are shown the sender has not sent any weather packets the latest 10 day(s).
| Time | Temp. | Humidity | Pressure | Rain* | Wind** | Luminosity | Snow |
|---|---|---|---|---|---|---|---|
| 1787867364 | 34.44° C | 44% | 1013.2 hPa | - | - | - | - |
| 1787867063 | 34.44° C | 45% | 1013.2 hPa | - | - | - | - |
| 1787866762 | 34.44° C | 45% | 1013.4 hPa | - | - | - | - |
| 1787866461 | 34.44° C | 45% | 1013.3 hPa | - | - | - | - |
| 1787866160 | 34.44° C | 44% | 1013.6 hPa | - | - | - | - |
| 1787865859 | 34.44° C | 45% | 1013.5 hPa | - | - | - | - |
| 1787865558 | 33.89° C | 46% | 1013.5 hPa | - | - | - | - |
| 1787865257 | 34.44° C | 47% | 1013.5 hPa | - | - | - | - |
| 1787864956 | 33.89° C | 47% | 1013.6 hPa | - | - | - | - |
| 1787864656 | 33.89° C | 48% | 1013.5 hPa | - | - | - | - |
| 1787864375 | 33.89° C | 47% | 1013.9 hPa | - | - | - | - |
| 1787864074 | 33.89° C | 47% | 1013.8 hPa | - | - | - | - |
| 1787863773 | 33.89° C | 45% | 1013.9 hPa | - | - | - | - |
| 1787863472 | 33.89° C | 47% | 1013.8 hPa | - | - | - | - |
| 1787863171 | 33.89° C | 46% | 1014.1 hPa | - | - | - | - |
| 1787862870 | 33.89° C | 45% | 1013.9 hPa | - | - | - | - |
| 1787862569 | 34.44° C | 44% | 1013.9 hPa | - | - | - | - |
| 1787862269 | 34.44° C | 45% | 1014 hPa | - | - | - | - |
| 1787861968 | 34.44° C | 44% | 1014.1 hPa | - | - | - | - |
| 1787861667 | 34.44° C | 43% | 1014.1 hPa | - | - | - | - |
| 1787861366 | 34.44° C | 46% | 1014 hPa | - | - | - | - |
| 1787861065 | 35° C | 44% | 1014 hPa | - | - | - | - |
| 1787860764 | 35° C | 43% | 1013.9 hPa | - | - | - | - |
| 1787860463 | 35° C | 41% | 1014 hPa | - | - | - | - |
| 1787860162 | 35° C | 40% | 1014 hPa | - | - | - | - |
* Rain since midnight (hover to see other rain measurements)
** Current wind speed in m/s (hover to see current wind gust speed)